Location: 22
(39.7117°N, 89.5929°W)
Time: 13:05:18
(UTC-06:00)

A-11 Canister half - All Passes

Search period start: 30 January 2023 00:00
Search period end: 09 February 2023 00:00
Orbit: 1514 x 1686 km, 47.2° (Epoch: 30 January)

Date Brightness Start Highest point End Pass type
(mag) Time Alt. Az. Time Alt. Az. Time Alt. Az.
30 Jan - 09:44:49 10° S 09:52:18 25° SE 09:59:36 10° ENE daylight
30 Jan - 11:46:30 10° SW 11:56:14 77° SE 12:05:38 10° ENE daylight
30 Jan - 13:52:11 10° W 14:01:37 59° NNW 14:10:47 10° ENE daylight
30 Jan - 15:58:26 10° WNW 16:07:43 60° NNE 16:16:50 10° E daylight
30 Jan - 18:03:43 10° WNW 18:12:57 73° SW 18:22:08 10° SE visible
30 Jan - 20:10:06 10° W 20:16:37 22° SW 20:23:12 10° S visible
31 Jan - 09:22:13 10° S 09:29:26 24° SE 09:36:28 10° E daylight
31 Jan - 11:23:35 10° SW 11:33:18 74° SE 11:42:42 10° ENE daylight
31 Jan - 13:29:08 10° W 13:38:37 60° NNW 13:47:49 10° ENE daylight
31 Jan - 15:35:26 10° WNW 15:44:44 59° NNE 15:53:50 10° E daylight
31 Jan - 17:40:45 10° WNW 17:50:02 76° SW 17:59:15 10° SE visible
31 Jan - 19:46:56 10° W 19:53:48 24° SW 20:00:40 10° S visible
01 Feb - 08:59:41 10° S 09:06:35 22° SE 09:13:20 10° E daylight
01 Feb - 11:00:40 10° SW 11:10:22 71° SE 11:19:45 10° ENE daylight
01 Feb - 13:06:06 10° W 13:15:37 61° NNW 13:24:52 10° ENE daylight
01 Feb - 15:12:26 10° WNW 15:21:44 58° N 15:30:50 10° E daylight
01 Feb - 17:17:48 10° WNW 17:27:08 80° SSW 17:36:21 10° SE daylight
01 Feb - 19:23:49 10° WNW 19:30:57 26° SW 19:38:07 10° S visible
02 Feb - 08:37:11 10° SSE 08:43:44 20° SE 08:50:08 10° E daylight
02 Feb - 10:37:44 10° SW 10:47:27 67° SE 10:56:49 10° ENE daylight
02 Feb - 12:43:02 10° W 12:52:37 63° NNW 13:01:55 10° ENE daylight
02 Feb - 14:49:25 10° WNW 14:58:44 57° N 15:07:50 10° E daylight
02 Feb - 16:54:50 10° WNW 17:04:12 83° SSW 17:13:27 10° SE daylight
02 Feb - 19:00:43 10° WNW 19:08:07 28° SW 19:15:31 10° S visible
03 Feb - 08:14:44 10° SSE 08:20:52 18° SE 08:26:54 10° E daylight
03 Feb - 10:14:51 10° SW 10:24:31 64° SE 10:33:52 10° ENE daylight
03 Feb - 12:20:00 10° W 12:29:38 64° NNW 12:38:57 10° ENE daylight
03 Feb - 14:26:25 10° WNW 14:35:44 56° N 14:44:50 10° E daylight
03 Feb - 16:31:53 10° WNW 16:41:17 87° SSW 16:50:32 10° ESE daylight
03 Feb - 18:37:39 10° WNW 18:45:16 30° SW 18:52:55 10° S visible
04 Feb - 07:52:21 10° SSE 07:58:01 17° SE 08:03:35 10° E daylight
04 Feb - 09:51:57 10° SW 10:01:36 61° SE 10:10:56 10° ENE daylight
04 Feb - 11:56:57 10° W 12:06:38 66° NNW 12:16:01 10° ENE daylight
04 Feb - 14:03:23 10° WNW 14:12:44 56° N 14:21:50 10° E daylight
04 Feb - 16:08:54 10° WNW 16:18:21 90° E 16:27:37 10° ESE daylight
04 Feb - 18:14:35 10° WNW 18:22:26 32° SW 18:30:16 10° S visible
05 Feb - 07:30:04 10° SSE 07:35:11 15° ESE 07:40:13 10° E daylight
05 Feb - 09:29:05 10° SW 09:38:41 57° SE 09:47:58 10° ENE daylight
05 Feb - 11:33:54 10° WSW 11:43:39 68° NNW 11:53:04 10° ENE daylight
05 Feb - 13:40:21 10° WNW 13:49:44 55° N 13:58:50 10° E daylight
05 Feb - 15:45:57 10° WNW 15:55:25 87° NNE 16:04:41 10° ESE daylight
05 Feb - 17:51:32 10° WNW 17:59:35 35° SW 18:07:36 10° SSE visible
06 Feb - 07:07:53 10° SSE 07:12:20 14° ESE 07:16:43 10° E daylight
06 Feb - 09:06:13 10° SSW 09:15:46 54° SE 09:25:01 10° ENE daylight
06 Feb - 11:10:52 10° WSW 11:20:40 70° NNW 11:30:07 10° ENE daylight
06 Feb - 13:17:18 10° WNW 13:26:44 55° N 13:35:50 10° E daylight
06 Feb - 15:22:59 10° WNW 15:32:29 84° NNE 15:41:45 10° ESE daylight
06 Feb - 17:28:29 10° WNW 17:36:44 37° SW 17:44:54 10° SSE daylight
07 Feb - 06:45:53 10° SE 06:49:30 12° ESE 06:53:03 10° E daylight
07 Feb - 08:43:23 10° SSW 08:52:52 51° SE 09:02:02 10° ENE daylight
07 Feb - 10:47:49 10° WSW 10:57:40 72° NNW 11:07:11 10° ENE daylight
07 Feb - 12:54:16 10° WNW 13:03:42 55° N 13:12:50 10° E daylight
07 Feb - 15:00:01 10° WNW 15:09:31 81° NNE 15:18:49 10° ESE daylight
07 Feb - 17:05:27 10° WNW 17:13:52 40° SW 17:22:12 10° SSE daylight
08 Feb - 06:24:15 10° SE 06:26:39 11° ESE 06:29:02 10° ESE visible
08 Feb - 08:20:32 10° SSW 08:29:57 48° SE 08:39:04 10° ENE daylight
08 Feb - 10:24:48 10° WSW 10:34:41 75° NNW 10:44:14 10° ENE daylight
08 Feb - 12:31:14 10° WNW 12:40:41 55° N 12:49:51 10° ENE daylight
08 Feb - 14:37:02 10° WNW 14:46:35 78° NNE 14:55:51 10° ESE daylight
08 Feb - 16:42:26 10° WNW 16:51:01 42° SW 16:59:28 10° SSE daylight
